User: anonymous   Login
Location: Vancouver
(49.2500°N, 123.1330°W)
Time: 23:19:57
(UTC-07:00)
Language:

H-2A R/B - Orbit

View from above orbital plane
View from above orbital plane
View from above satellite
View from above satellite

Ground track
Ground track

The orbit data is extracted from the following two-line orbital elements,

1 27601U 02056E   15115.19815598  .00000415  00000-0  16684-3 0  9996
2 27601 098.4552 195.2847 0073490 097.0217 316.2315 14.31583736645632
Epoch (UTC): 25 April 2015 04:45:20
Eccentricity: 0.0073490
inclination: 98.4552°
perigee height: 734 km
apogee height: 839 km
right ascension of ascending node: 195.2847°
argument of perigee: 97.0217°
revolutions per day: 14.31583736
mean anomaly at epoch: 316.2315°
orbit number at epoch: 64563

The dashed part of the orbit path shows where the satellite is in the earth's shadow,  

DLR